Regional Weather Roundup
Issued by NWS

Home | Current Version | Previous Version | Graphics & Text | Print | Product List | Glossary On
Versions: 1 2 3 4 5 6 7 8 9 10 11 12 13 14 15 16 17 18 19 20 21 22 23 24 25 26 27 28 29 30 31 32 33 34 35 36 37 38 39 40 41 42 43 44 45 46 47 48 49 50
662
ASUS44 KLIX 011910
RWRLA
LOUISIANA WEATHER ROUNDUP
NATIONAL WEATHER SERVICE NEW ORLEANS LA
200 PM CDT FRI AUG 01 2014

NOTE: "FAIR" INDICATES FEW OR NO CLOUDS BELOW 12,000 FEET WITH NO
      SIGNIFICANT WEATHER AND/OR OBSTRUCTIONS TO VISIBILITY.
      SKY/WX - SKY CONDITION AND SIGNIFICANT WEATHER.
      TMP - AIR TEMPERATURE.    DP   - DEWPOINT TEMPERATURE.
      RH  - RELATIVE HUMIDITY.  PRES - PRESSURE.
      HX  - HEAT INDEX.         WCI  - WIND CHILL INDEX.

*  THESE STATIONS ARE NOT NWS OR FAA STATIONS AND ARE NOT UNDER
   NWS QUALITY CONTROL.

LAZ040-048-061>063-065-066-069-012000-
SOUTHEAST LOUISIANA

CITY           SKY/WX    TMP DP  RH WIND       PRES   REMARKS
N.O. AUDUBON     N/A     90  70  51 MISG        N/A  HX  95
N.O. INTL ARPT CLOUDY    88  66  48 CALM      29.99F
N.O. LAKEFRONT CLOUDY    86  65  49 NE9       30.00F
N.O. DOWNTOWN* MOCLDY    90  66  45 S5        30.00F
SLIDELL        CLOUDY    85  68  56 NE5       29.99F
BATON ROUGE    LGT RAIN  74  71  91 S10       30.00R
BOOTHVILLE     CLOUDY    84  68  58 E3        30.01F
BELLE CHASSE   PTSUNNY   89  67  47 E6        29.99F
BOGALUSA*      FAIR      82  68  62 NE6       30.03F
GALLIANO*      NOT AVBL
NEW ROADS*     CLOUDY    79  75  87 SE6       29.99S
GONZALES*      CLOUDY    85  69  58 S7        29.99S
HAMMOND*       CLOUDY    86  68  54 E6        30.01F
HOUMA*         PTSUNNY   90  64  43 SE3       30.00F
PORT FOURCHON* CLEAR     84  70  61 SE6       30.01F

$$

LAZ041-044-053-054-012000-
SOUTHWEST LOUISIANA

CITY           SKY/WX    TMP DP  RH WIND       PRES   REMARKS
LAKE CHARLES   CLOUDY    87  75  67 VRB6      29.95F HX  96
LAFAYETTE      PTSUNNY   82  75  79 S7        29.97F
PATTERSON      CLOUDY    84  73  70 S8        30.03S
SALT POINT       N/A     80  73  79 VRB6      29.99R
NEW IBERIA     CLOUDY    84  76  76 SW8       29.99F
CHENAULT AIRPK PTSUNNY   84  73  70 SW8       29.96F

$$

LAZ027-028-012000-
CENTRAL LOUISIANA

CITY           SKY/WX    TMP DP  RH WIND       PRES   REMARKS
FORT POLK      PTSUNNY   83  72  69 W10       29.96S
ALEXANDRIA INT CLOUDY    80  75  84 W3        29.94S
ALEXANDRIA     CLOUDY    80  75  84 S6        29.96S

$$

LAZ001-002-012000-
NORTHWEST LOUISIANA

CITY           SKY/WX    TMP DP  RH WIND       PRES   REMARKS
SHREVEPORT     CLOUDY    71  69  93 N10       30.00S
BARKSDALE AFB  CLOUDY    70  69  98 N9        30.01S
DTN SHREVEPORT CLOUDY    70  68  93 NE6       30.01S FOG

$$

LAZ014-016-012000-
NORTHEAST LOUISIANA

CITY           SKY/WX    TMP DP  RH WIND       PRES   REMARKS
MONROE         RAIN      71  68  90 E6        30.00F FOG
TALLULAH       CLOUDY    75  69  81 SE9       30.02S

$$




USA.gov is the U.S. government's official web portal to all federal, state and local government web resources and services.